Mount Sterling, KY

12:08 PM EST on February 09, 2016 (GMT -0500)
Mount Sterling-Montgomery County

Weather History for KIOB - November, 2014

Change the Weather History Date:

Monday, November 10, 2014

  Actual Average Record
Temperature  
Mean Temperature 50 °F -  
Max Temperature 66 °F 59 °F 66 °F (2014)
Min Temperature 33 °F 37 °F 30 °F (2013)
Degree Days  
Heating Degree Days 16    
Moisture  
Dew Point 35 °F    
Average Humidity 60    
Maximum Humidity 93    
Minimum Humidity 30    
Precipitation  
Precipitation 0.00 in - - ()
Sea Level Pressure  
Sea Level Pressure 29.96 in    
Wind  
Wind Speed 7 mph (SSW)    
Max Wind Speed 15 mph    
Max Gust Speed 22 mph    
Visibility 10 miles    
Events      
Averages and records for this station are not official NWS values.
T = Trace of Precipitation, MM = Missing Value Source: NWS Daily Summary

Daily Weather History Graph

Daily Weather History Graph

Search for Another Location

Airport or City:

Trip Planner

Search our weather history database for the weather conditions in past years. The results will help you decide how hot, cold, wet, or windy it might be!

Date:

Astronomy

Nov. 10, 2014 Rise Set
Actual Time 7:11 AM EST 5:27 PM EST
Civil Twilight 6:43 AM EST 5:55 PM EST
Nautical Twilight 6:11 AM EST 6:27 PM EST
Astronomical Twilight 5:40 AM EST 6:58 PM EST
Moon 8:55 PM EST (11/10) 10:32 AM EST (11/10)
Length of Visible Light 11h 12m
Length of Day
10h 16m
Waning Gibbous, 85% of the Moon is Illuminated
Nov 10
Waning Gibbous
Nov 14
Last Quarter
Nov 22
New
Nov 29
First Quarter
Dec 6
Full

Hourly Weather History & Observations

Time (EST) Temp. Windchill Dew Point Humidity Pressure Visibility Wind Dir Wind Speed Gust Speed Precip Events Conditions
12:15 AM 39.2 °F 35.9 °F 33.8 °F 81% 30.00 in 10.0 mi SW 4.6 mph - N/A   Clear
12:35 AM 37.4 °F 32.8 °F 33.8 °F 87% 30.00 in 10.0 mi SW 5.8 mph - N/A   Clear
12:55 AM 35.6 °F 31.7 °F 33.8 °F 93% 30.00 in 10.0 mi SW 4.6 mph - N/A   Clear
1:15 AM 37.4 °F 32.8 °F 33.8 °F 87% 30.00 in 10.0 mi SSW 5.8 mph - N/A   Clear
1:35 AM 35.6 °F 30.7 °F 33.8 °F 93% 30.00 in 10.0 mi SSW 5.8 mph - N/A   Clear
1:55 AM 35.6 °F 30.7 °F 33.8 °F 93% 30.00 in 10.0 mi SSW 5.8 mph - N/A   Clear
2:15 AM 35.6 °F 32.8 °F 33.8 °F 93% 30.00 in 10.0 mi SSW 3.5 mph - N/A   Clear
2:35 AM 37.4 °F - 33.8 °F 87% 30.01 in 10.0 mi Calm Calm - N/A   Clear
2:55 AM 37.4 °F 34.9 °F 33.8 °F 87% 30.00 in 10.0 mi SSW 3.5 mph - N/A   Clear
3:15 AM 33.8 °F 28.6 °F 32.0 °F 93% 30.01 in 10.0 mi SSW 5.8 mph - N/A   Clear
3:35 AM 35.6 °F 32.8 °F 33.8 °F 93% 30.00 in 10.0 mi SSW 3.5 mph - N/A   Clear
3:55 AM 35.6 °F 32.8 °F 33.8 °F 93% 30.01 in 10.0 mi SSW 3.5 mph - N/A   Clear
4:15 AM 33.8 °F 28.6 °F 32.0 °F 93% 30.01 in 10.0 mi SSW 5.8 mph - N/A   Clear
4:35 AM 35.6 °F 29.9 °F 33.8 °F 93% 30.00 in 10.0 mi SSW 6.9 mph - N/A   Clear
4:55 AM 37.4 °F 32.8 °F 33.8 °F 87% 30.00 in 10.0 mi SSW 5.8 mph - N/A   Clear
5:15 AM 35.6 °F - 33.8 °F 93% 30.01 in 10.0 mi Calm Calm - N/A   Clear
5:35 AM 35.6 °F 31.7 °F 33.8 °F 93% 30.01 in 10.0 mi SW 4.6 mph - N/A   Clear
5:55 AM 35.6 °F 29.9 °F 33.8 °F 93% 30.01 in 10.0 mi SSW 6.9 mph - N/A   Clear
6:15 AM 37.4 °F 32.1 °F 32.0 °F 81% 30.01 in 10.0 mi SSW 6.9 mph - N/A   Clear
6:35 AM 35.6 °F 32.8 °F 32.0 °F 87% 30.02 in 10.0 mi SW 3.5 mph - N/A   Clear
6:55 AM 35.6 °F 30.7 °F 32.0 °F 87% 30.02 in 10.0 mi SSW 5.8 mph - N/A   Clear
7:15 AM 35.6 °F 29.9 °F 32.0 °F 87% 30.02 in 10.0 mi SSW 6.9 mph - N/A   Clear
7:35 AM 37.4 °F 33.8 °F 33.8 °F 87% 30.03 in 10.0 mi SSW 4.6 mph - N/A   Clear
7:55 AM 37.4 °F - 33.8 °F 87% 30.04 in 10.0 mi Calm Calm - N/A   Clear
8:15 AM 39.2 °F - 33.8 °F 81% 30.05 in 10.0 mi Calm Calm - N/A   Clear
8:35 AM 42.8 °F 39.3 °F 35.6 °F 76% 30.04 in 10.0 mi South 5.8 mph - N/A   Clear
8:55 AM 46.4 °F 42.4 °F 37.4 °F 71% 30.05 in 10.0 mi SSW 8.1 mph - N/A   Clear
9:15 AM 48.2 °F - 37.4 °F 66% 30.05 in 10.0 mi SSW 10.4 mph - N/A   Clear
9:35 AM 50.0 °F - 37.4 °F 62% 30.04 in 10.0 mi SW 8.1 mph - N/A   Clear
9:55 AM 51.8 °F - 37.4 °F 58% 30.04 in 10.0 mi SSW 12.7 mph - N/A   Clear
10:15 AM 51.8 °F - 37.4 °F 58% 30.04 in 10.0 mi SSW 11.5 mph - N/A   Clear
10:35 AM 53.6 °F - 39.2 °F 58% 30.03 in 10.0 mi SW 8.1 mph - N/A   Clear
10:55 AM 53.6 °F - 41.0 °F 62% 30.03 in 10.0 mi SW 9.2 mph - N/A   Clear
11:15 AM 55.4 °F - 41.0 °F 58% 30.02 in 10.0 mi SW 9.2 mph 17.3 mph N/A   Clear
11:35 AM 59.0 °F - 41.0 °F 51% 30.01 in 10.0 mi WSW 11.5 mph 17.3 mph N/A   Clear
11:55 AM 59.0 °F - 39.2 °F 48% 30.00 in 10.0 mi WSW 10.4 mph - N/A   Clear
12:15 PM 60.8 °F - 39.2 °F 45% 30.00 in 10.0 mi SSW 11.5 mph 16.1 mph N/A   Clear
12:35 PM 60.8 °F - 39.2 °F 45% 29.99 in 10.0 mi WSW 9.2 mph - N/A   Clear
12:55 PM 60.8 °F - 41.0 °F 48% 29.98 in 10.0 mi WSW 8.1 mph - N/A   Clear
1:15 PM 62.6 °F - 39.2 °F 42% 29.96 in 10.0 mi SW 9.2 mph - N/A   Clear
1:35 PM 64.4 °F - 35.6 °F 34% 29.95 in 10.0 mi SSW 11.5 mph 21.9 mph N/A   Clear
1:55 PM 64.4 °F - 32.0 °F 30% 29.94 in 10.0 mi SW 15.0 mph 20.7 mph N/A   Clear
2:15 PM 64.4 °F - 32.0 °F 30% 29.93 in 10.0 mi SW 13.8 mph 19.6 mph N/A   Clear
2:35 PM 64.4 °F - 33.8 °F 32% 29.93 in 10.0 mi SW 11.5 mph 16.1 mph N/A   Clear
2:55 PM 64.4 °F - 33.8 °F 32% 29.91 in 10.0 mi SW 11.5 mph - N/A   Clear
3:15 PM 64.4 °F - 32.0 °F 30% 29.91 in 10.0 mi SW 11.5 mph 19.6 mph N/A   Clear
3:35 PM 66.2 °F - 33.8 °F 30% 29.91 in 10.0 mi SSW 9.2 mph - N/A   Clear
3:55 PM 64.4 °F - 33.8 °F 32% 29.91 in 10.0 mi SSW 10.4 mph - N/A   Clear
4:15 PM 62.6 °F - 35.6 °F 37% 29.90 in 10.0 mi SSW 4.6 mph - N/A   Clear
4:35 PM 62.6 °F - 37.4 °F 39% 29.90 in 10.0 mi SSW 5.8 mph - N/A   Clear
4:55 PM 60.8 °F - 35.6 °F 39% 29.89 in 10.0 mi SSW 6.9 mph - N/A   Clear
5:15 PM 60.8 °F - 35.6 °F 39% 29.89 in 10.0 mi SSW 6.9 mph - N/A   Clear
5:35 PM 59.0 °F - 35.6 °F 42% 29.89 in 10.0 mi South 6.9 mph - N/A   Clear
5:55 PM 60.8 °F - 33.8 °F 36% 29.88 in 10.0 mi South 6.9 mph - N/A   Clear
6:15 PM 59.0 °F - 33.8 °F 39% 29.88 in 10.0 mi South 9.2 mph - N/A   Clear
6:35 PM 59.0 °F - 33.8 °F 39% 29.88 in 10.0 mi South 8.1 mph - N/A   Clear
6:55 PM 57.2 °F - 33.8 °F 41% 29.88 in 10.0 mi South 8.1 mph - N/A   Clear
7:15 PM 57.2 °F - 33.8 °F 41% 29.88 in 10.0 mi SSW 9.2 mph - N/A   Clear
7:35 PM 57.2 °F - 33.8 °F 41% 29.88 in 10.0 mi SSW 10.4 mph - N/A   Clear
7:55 PM 55.4 °F - 32.0 °F 41% 29.88 in 10.0 mi SSW 9.2 mph - N/A   Clear
8:15 PM 55.4 °F - 32.0 °F 41% 29.88 in 10.0 mi SSW 10.4 mph - N/A   Clear
8:35 PM 55.4 °F - 32.0 °F 41% 29.87 in 10.0 mi SSW 10.4 mph - N/A   Clear
8:55 PM 55.4 °F - 30.2 °F 38% 29.87 in 10.0 mi SSW 10.4 mph - N/A   Clear
9:15 PM 55.4 °F - 30.2 °F 38% 29.87 in 10.0 mi SSW 11.5 mph - N/A   Clear
9:35 PM 55.4 °F - 32.0 °F 41% 29.88 in 10.0 mi SSW 12.7 mph - N/A   Clear
9:55 PM 55.4 °F - 32.0 °F 41% 29.88 in 10.0 mi SSW 11.5 mph - N/A   Clear
10:15 PM 55.4 °F - 33.8 °F 44% 29.87 in 10.0 mi SSW 12.7 mph 18.4 mph N/A   Clear
10:35 PM 55.4 °F - 33.8 °F 44% 29.87 in 10.0 mi SSW 12.7 mph - N/A   Clear
10:55 PM 55.4 °F - 35.6 °F 47% 29.87 in 10.0 mi SW 10.4 mph - N/A   Clear
11:15 PM 55.4 °F - 35.6 °F 47% 29.88 in 10.0 mi SW 10.4 mph - N/A   Clear
11:35 PM 55.4 °F - 35.6 °F 47% 29.88 in 10.0 mi SW 9.2 mph - N/A   Clear
11:55 PM 53.6 °F - 35.6 °F 51% 29.89 in 10.0 mi WSW 5.8 mph - N/A   Clear